Time,TemperatureF,DewpointF,PressureIn,WindDirection,WindDirectionDegrees,WindSpeedMPH,WindSpeedGustMPH,Humidity,HourlyPrecipIn,Conditions,Clouds,dailyrainin,SoftwareType,DateUTC
2013-07-11 00:00:00,79.0,75.0,29.83,SSW,202,8.0,13.0,86,0.00,,,-99.99,,2013-07-11 04:00:00,
2013-07-11 00:32:00,79.0,75.0,29.83,SSW,202,8.0,13.0,86,0.00,,,-99.99,,2013-07-11 04:32:00,
2013-07-11 00:43:00,79.0,75.0,29.83,SSW,202,8.0,13.0,86,0.00,,,-99.99,,2013-07-11 04:43:00,
2013-07-11 00:53:00,79.0,75.0,29.83,SSW,202,8.0,13.0,86,0.00,,,-99.99,,2013-07-11 04:53:00,
2013-07-11 01:00:00,79.0,74.0,29.83,SW,225,5.0,13.0,86,0.00,,,-99.99,,2013-07-11 05:00:00,
2013-07-11 01:32:00,79.0,74.0,29.83,SW,225,5.0,13.0,86,0.00,,,-99.99,,2013-07-11 05:32:00,
2013-07-11 01:43:00,79.0,74.0,29.83,SW,225,5.0,13.0,86,0.00,,,-99.99,,2013-07-11 05:43:00,
2013-07-11 01:52:00,79.0,74.0,29.83,SW,225,5.0,13.0,86,0.00,,,-99.99,,2013-07-11 05:52:00,
2013-07-11 02:00:00,79.0,74.0,29.83,SW,226,14.0,15.0,86,0.00,,,-99.99,,2013-07-11 06:00:00,
2013-07-11 02:32:00,79.0,74.0,29.83,SW,226,14.0,15.0,86,0.00,,,-99.99,,2013-07-11 06:32:00,
2013-07-11 02:43:00,79.0,74.0,29.83,SW,226,14.0,15.0,86,0.00,,,-99.99,,2013-07-11 06:43:00,
2013-07-11 02:53:00,79.0,74.0,29.83,SW,226,14.0,15.0,86,0.00,,,-99.99,,2013-07-11 06:53:00,
2013-07-11 03:00:00,79.0,72.0,29.83,WSW,250,9.0,14.0,79,0.00,,,-99.99,,2013-07-11 07:00:00,
2013-07-11 03:32:00,79.0,72.0,29.83,WSW,250,9.0,14.0,79,0.00,,,-99.99,,2013-07-11 07:32:00,
2013-07-11 03:45:00,79.0,72.0,29.83,WSW,250,9.0,14.0,79,0.00,,,-99.99,,2013-07-11 07:45:00,
2013-07-11 03:53:00,79.0,72.0,29.83,WSW,250,9.0,14.0,79,0.00,,,-99.99,,2013-07-11 07:53:00,
2013-07-11 04:00:00,78.0,71.0,29.83,SW,233,8.0,14.0,78,0.00,,,-99.99,,2013-07-11 08:00:00,
2013-07-11 04:34:00,78.0,71.0,29.83,SW,233,8.0,14.0,78,0.00,,,-99.99,,2013-07-11 08:34:00,
2013-07-11 04:43:00,78.0,71.0,29.83,SW,233,8.0,14.0,78,0.00,,,-99.99,,2013-07-11 08:43:00,
2013-07-11 04:53:00,78.0,71.0,29.83,SW,233,8.0,14.0,78,0.00,,,-99.99,,2013-07-11 08:53:00,
2013-07-11 05:00:00,78.0,71.0,29.83,SW,228,8.0,14.0,81,0.00,,,-99.99,,2013-07-11 09:00:00,
2013-07-11 05:33:00,78.0,71.0,29.83,SW,228,8.0,14.0,81,0.00,,,-99.99,,2013-07-11 09:33:00,
2013-07-11 05:43:00,78.0,71.0,29.83,SW,228,8.0,14.0,81,0.00,,,-99.99,,2013-07-11 09:43:00,
2013-07-11 05:53:00,78.0,71.0,29.83,SW,228,8.0,14.0,81,0.00,,,-99.99,,2013-07-11 09:53:00,
2013-07-11 06:00:00,77.0,71.0,29.83,SSW,211,12.0,17.0,82,0.00,,,-99.99,,2013-07-11 10:00:00,
2013-07-11 06:33:00,77.0,71.0,29.83,SSW,211,12.0,17.0,82,0.00,,,-99.99,,2013-07-11 10:33:00,
2013-07-11 06:43:00,77.0,71.0,29.83,SSW,211,12.0,17.0,82,0.00,,,-99.99,,2013-07-11 10:43:00,
2013-07-11 06:52:00,77.0,71.0,29.83,SSW,211,12.0,17.0,82,0.00,,,-99.99,,2013-07-11 10:52:00,
2013-07-11 07:00:00,76.0,71.0,29.85,SW,226,7.0,16.0,85,0.00,,,-99.99,,2013-07-11 11:00:00,
2013-07-11 07:33:00,76.0,71.0,29.85,SW,226,7.0,16.0,85,0.00,,,-99.99,,2013-07-11 11:33:00,
2013-07-11 07:43:00,76.0,71.0,29.85,SW,226,7.0,16.0,85,0.00,,,-99.99,,2013-07-11 11:43:00,
2013-07-11 07:53:00,76.0,71.0,29.85,SW,226,7.0,16.0,85,0.00,,,-99.99,,2013-07-11 11:53:00,
2013-07-11 08:33:00,75.0,72.0,29.85,SW,214,4.0,13.0,91,0.04,,,-99.99,,2013-07-11 12:33:00,
2013-07-11 08:43:00,75.0,72.0,29.85,SW,214,4.0,13.0,91,0.04,,,-99.99,,2013-07-11 12:43:00,
2013-07-11 08:57:00,75.0,72.0,29.85,SW,214,4.0,13.0,91,0.04,,,-99.99,,2013-07-11 12:57:00,
2013-07-11 09:00:00,75.0,73.0,29.86,West,265,6.0,12.0,92,0.01,,,-99.99,,2013-07-11 13:00:00,
2013-07-11 09:35:00,75.0,73.0,29.86,West,265,6.0,12.0,92,0.01,,,-99.99,,2013-07-11 13:35:00,
2013-07-11 09:47:00,75.0,73.0,29.86,West,265,6.0,12.0,92,0.01,,,-99.99,,2013-07-11 13:47:00,
2013-07-11 09:55:00,75.0,73.0,29.86,West,265,6.0,12.0,92,0.01,,,-99.99,,2013-07-11 13:55:00,
2013-07-11 10:00:00,75.0,73.0,29.87,SW,231,5.0,14.0,94,0.04,,,-99.99,,2013-07-11 14:00:00,
2013-07-11 10:36:00,75.0,73.0,29.87,SW,231,5.0,14.0,94,0.04,,,-99.99,,2013-07-11 14:36:00,
2013-07-11 10:47:00,75.0,73.0,29.87,SW,231,5.0,14.0,94,0.04,,,-99.99,,2013-07-11 14:47:00,
2013-07-11 10:55:00,75.0,73.0,29.87,SW,231,5.0,14.0,94,0.04,,,-99.99,,2013-07-11 14:55:00,
2013-07-11 11:00:00,76.0,74.0,29.87,SW,233,7.0,11.0,93,0.01,,,-99.99,,2013-07-11 15:00:00,
2013-07-11 11:49:00,76.0,74.0,29.87,SW,233,7.0,11.0,93,0.01,,,-99.99,,2013-07-11 15:49:00,
2013-07-11 11:59:00,76.0,74.0,29.87,SW,233,7.0,11.0,93,0.01,,,-99.99,,2013-07-11 15:59:00,
2013-07-11 12:00:00,78.0,74.0,29.87,West,274,6.0,11.0,88,0.00,,,-99.99,,2013-07-11 16:00:00,
2013-07-11 12:36:00,78.0,74.0,29.87,West,274,6.0,11.0,88,0.00,,,-99.99,,2013-07-11 16:36:00,
2013-07-11 12:49:00,78.0,74.0,29.87,West,274,6.0,11.0,88,0.00,,,-99.99,,2013-07-11 16:49:00,
2013-07-11 12:56:00,78.0,74.0,29.87,West,274,6.0,11.0,88,0.00,,,-99.99,,2013-07-11 16:56:00,
2013-07-11 13:00:00,78.0,74.0,29.88,West,263,4.0,11.0,86,0.00,,,-99.99,,2013-07-11 17:00:00,
2013-07-11 13:40:00,78.0,74.0,29.88,West,263,4.0,11.0,86,0.00,,,-99.99,,2013-07-11 17:40:00,
2013-07-11 13:50:00,78.0,74.0,29.88,West,263,4.0,11.0,86,0.00,,,-99.99,,2013-07-11 17:50:00,
2013-07-11 13:57:00,78.0,74.0,29.88,West,263,4.0,11.0,86,0.00,,,-99.99,,2013-07-11 17:57:00,
2013-07-11 14:00:00,81.0,72.0,29.86,WSW,249,7.0,9.0,75,0.00,,,-99.99,,2013-07-11 18:00:00,
2013-07-11 14:36:00,81.0,72.0,29.86,WSW,249,7.0,9.0,75,0.00,,,-99.99,,2013-07-11 18:36:00,
2013-07-11 14:49:00,81.0,72.0,29.86,WSW,249,7.0,9.0,75,0.00,,,-99.99,,2013-07-11 18:49:00,
2013-07-11 14:56:00,81.0,72.0,29.86,WSW,249,7.0,9.0,75,0.00,,,-99.99,,2013-07-11 18:56:00,
2013-07-11 15:00:00,82.0,70.0,29.85,NNW,331,6.0,11.0,68,0.00,,,-99.99,,2013-07-11 19:00:00,
2013-07-11 15:39:00,82.0,70.0,29.85,NNW,331,6.0,11.0,68,0.00,,,-99.99,,2013-07-11 19:39:00,
2013-07-11 15:47:00,82.0,70.0,29.85,NNW,331,6.0,11.0,68,0.00,,,-99.99,,2013-07-11 19:47:00,
2013-07-11 15:58:00,82.0,70.0,29.85,NNW,331,6.0,11.0,68,0.00,,,-99.99,,2013-07-11 19:58:00,
2013-07-11 16:00:00,84.0,70.0,29.85,North,8,3.0,12.0,63,0.00,,,-99.99,,2013-07-11 20:00:00,
2013-07-11 16:40:00,84.0,70.0,29.85,North,8,3.0,12.0,63,0.00,,,-99.99,,2013-07-11 20:40:00,
2013-07-11 16:56:00,84.0,70.0,29.85,North,8,3.0,12.0,63,0.00,,,-99.99,,2013-07-11 20:56:00,
2013-07-11 18:00:00,73.0,69.0,29.86,SSE,156,7.0,14.0,86,0.00,,,-99.99,,2013-07-11 22:00:00,
2013-07-11 19:00:00,74.0,69.0,29.87,South,177,8.0,13.0,86,0.00,,,-99.99,,2013-07-11 23:00:00,
2013-07-11 19:37:00,74.0,69.0,29.87,South,177,8.0,13.0,86,0.00,,,-99.99,,2013-07-11 23:37:00,
2013-07-11 19:47:00,74.0,69.0,29.87,South,177,8.0,13.0,86,0.00,,,-99.99,,2013-07-11 23:47:00,
2013-07-11 20:00:00,73.0,67.0,29.88,SSE,155,7.0,11.0,81,0.00,,,-99.99,,2013-07-12 00:00:00,
2013-07-11 20:37:00,73.0,67.0,29.88,SSE,155,7.0,11.0,81,0.00,,,-99.99,,2013-07-12 00:37:00,
2013-07-11 20:46:00,73.0,67.0,29.88,SSE,155,7.0,11.0,81,0.00,,,-99.99,,2013-07-12 00:46:00,
2013-07-11 20:58:00,73.0,67.0,29.88,SSE,155,7.0,11.0,81,0.00,,,-99.99,,2013-07-12 00:58:00,
2013-07-11 22:00:00,70.0,68.0,29.90,South,176,5.0,8.0,93,0.00,,,-99.99,,2013-07-12 02:00:00,
2013-07-11 22:36:00,70.0,68.0,29.90,South,176,5.0,8.0,93,0.00,,,-99.99,,2013-07-12 02:36:00,
2013-07-11 22:46:00,70.0,68.0,29.90,South,176,5.0,8.0,93,0.00,,,-99.99,,2013-07-12 02:46:00,
2013-07-11 22:55:00,70.0,68.0,29.90,South,176,5.0,8.0,93,0.00,,,-99.99,,2013-07-12 02:55:00,
2013-07-11 23:00:00,73.0,70.0,29.90,West,280,2.0,5.0,92,0.00,,,-99.99,,2013-07-12 03:00:00,
2013-07-11 23:38:00,73.0,70.0,29.90,West,280,2.0,5.0,92,0.00,,,-99.99,,2013-07-12 03:38:00,
2013-07-11 23:47:00,73.0,70.0,29.90,West,280,2.0,5.0,92,0.00,,,-99.99,,2013-07-12 03:47:00,
2013-07-11 23:57:00,73.0,70.0,29.90,West,280,2.0,5.0,92,0.00,,,-99.99,,2013-07-12 03:57:00,